Regional Weather Roundup
Issued by NWS Wilmington, NC

Home | Current Version | Previous Version | Text Only | Print | Product List | Glossary On
Versions: 1 2 3 4 5 6 7 8 9 10 11 12 13 14 15 16 17 18 19 20 21 22 23 24 25 26 27 28 29 30 31 32 33 34 35 36 37 38 39 40 41 42 43 44 45 46 47 48 49 50
000
ASUS42 KILM 260213
RWRILM
RWRILM
REGIONAL HOURLY WEATHER ROUNDUP
NATIONAL WEATHER SERVICE WILMINGTON NC
1000 PM EDT SAT MAR 25 2017

NOTE: "FAIR" INDICATES FEW OR NO CLOUDS BELOW 12,000 FEET WITH NO
SIGNIFICANT WEATHER AND/OR OBSTRUCTIONS TO VISIBILITY.

...............WFO WILMINGTON COUNTY WARNING AREA...............

......COASTAL NC AND SC COUNTIES......

CITY           SKY/WX    TMP DP  RH WIND       PRES   REMARKS
WILMINGTON     PTCLDY    62  56  80 S5        30.27S
N MYRTLE BEACH CLOUDY    63  57  81 CALM      30.26R
MYRTLE BEACH   CLEAR     63  57  82 SE8       30.27R

......INLAND NC AND SC COUNTIES.......

CITY           SKY/WX    TMP DP  RH WIND       PRES   REMARKS
LUMBERTON      CLEAR     63  54  72 VRB3      30.24R
ELIZABETHTOWN  CLOUDY    63  54  73 SE6       30.26R
WHITEVILLE     CLOUDY    63  54  72 CALM      30.26R
FLORENCE       PTCLDY    61  54  77 SE5       30.25R
DARLINGTON     PTCLDY    65  54  67 S8        30.24
KINGSTREE      FAIR      59  52  77 CALM      30.25R
HARTSVILLE     FAIR      63  52  67 S6        30.23R
BENNETTSVILLE  FAIR      66  55  68 S7        30.23S
CONWAY         FAIR      55  52  88 CALM      30.26S
GEORGETOWN     FAIR      59  55  88 CALM      30.26S
MARION         FAIR      61  52  72 CALM      30.25S

....................REST OF NORTH CAROLINA......................

.........EASTERN NC.........

CITY           SKY/WX    TMP DP  RH WIND       PRES   REMARKS
CAPE HATTERAS  MOCLDY    64  56  75 W7        30.28S
JACKSONVILLE   PTCLDY    61  54  77 S5        30.27R
MOREHEAD CITY  MOCLDY    62  58  86 S5        30.28S
KENANSVILLE    PTCLDY    61  52  72 CALM      30.27R
NEW BERN       CLOUDY    62  55  77 S7        30.28S
ELIZABETH CITY PTCLDY    63  51  65 S9        30.25R

.........CENTRAL NC.........

CITY           SKY/WX    TMP DP  RH WIND       PRES   REMARKS
RALEIGH DURHAM CLOUDY    65  48  54 S5        30.23R
ROCKY MOUNT    MOCLDY    64  53  67 S6        30.24R
ROANOKE RAPIDS NOT AVBL
FAYETTEVILLE   CLEAR     66  52  60 S9        30.24R
HOFFMAN        MOCLDY    62  52  70 S8        30.23R

.........WESTERN NC.........

CITY           SKY/WX    TMP DP  RH WIND       PRES   REMARKS
CHARLOTTE      PTCLDY    64  48  56 SE6       30.21R
GREENSBORO     CLOUDY    62  49  62 S6        30.20S
HICKORY        NOT AVBL
BOONE          NOT AVBL
ASHEVILLE      NOT AVBL

.....................REST OF SOUTH CAROLINA.....................

.........EASTERN SC.........

CITY           SKY/WX    TMP DP  RH WIND       PRES   REMARKS
CHARLESTON     PTCLDY    63  55  75 E6        30.23S
BEAUFORT MCAS  CLEAR     63  60  90 SE3       30.22R
HILTON HEAD    CLEAR     64  59  82 CALM      30.22S

.........CENTRAL SC.........

CITY           SKY/WX    TMP DP  RH WIND       PRES   REMARKS
COLUMBIA       PTCLDY    67  51  56 SE9       30.21R
ORANGEBURG     CLEAR     63  53  70 SE3       30.23R
SUMTER SHAW    CLEAR     64  54  70 SE6       30.21R

.........WESTERN SC.........

CITY           SKY/WX    TMP DP  RH WIND       PRES   REMARKS
GREENVILLE     NOT AVBL
ROCK HILL      PTCLDY    60  50  69 CALM      30.20S
ANDERSON       MOCLDY    65  50  58 E6        30.16S
CLEMSON        NOT AVBL
GREENWOOD      PTCLDY    65  49  56 SE5       30.19R


...................COASTAL AND OFFSHORE REPORTS..................

................LOCAL PIERS AND NC RESERVE................


STATION/POSITION TIME  SKY/WX   TEMP    WIND        PRES    VSBY
                                AIR SEA DIR/SP/G
                 (UTC)          (F)     (DEG/KT/KT) (MB)    (MI)
JOHNY MRCER PIER 0142            63 59  170/  9/ 10 1023.9R
NC RESRV MASNBRO 0045            62     220/  3     1024.0
OCEAN CREST PIER NOT AVBL
SPRINGMAID  PIER 0142                               1024.0R


................COASTAL AND OFFSHORE BUOYS................


STATION/POSITION TIME  SKY/WX   TEMP    WIND        PRES    VSBY
                                AIR SEA DIR/SP/G
                 (UTC)          (F)     (DEG/KT/KT) (MB)    (MI)
DIMNDSHOAL 41025 0150            70 76  190/ 16/ 19 1025.3R
WVE H/P(F/S)=  4/ 5 SWL H/P/D(F/S/D)=  2/140/ 7

CAPE LOOKOUT     0100            67     210/  7/  9 1025.0S
ONSLOW BAY 41036 NOT AVBL
ONSLOW BAY 41064 0108            66     240/  4/  6 1025.4R
ONSLOW BAY 41159 0143               66                N/A
WVE H/P(F/S)=  3/ 8

MASNBO INL 41110 0159               59                N/A
WVE H/P(F/S)=  3/ 7

WILM HARBR 41108 0147               60                N/A
WVE H/P(F/S)=  3/ 9

27SE WRITB 41037 0108            64 63  130/  2/  4 1024.2F
FRYING PAN 41013 0120            70 74  160/ 12/ 16 1024.8
SUNST NRSH 41024 NOT AVBL
CAPRS NRSH 41029 0108            63     120/  6/ 10 1023.6R
EDISTO     41004 0050            71 71  120/ 14/ 17 1023.1
WVE H/P(F/S)=  4/ 7 SWL H/P/D(F/S/D)=  3/110/ 7



..........OFFSHORE BUOYS BEYOND 100 NM OFFSHORE...........
.....IN A TRIANGLE---HAT TO BERMUDA TO BAHAMAS TO HAT.....


STATION/POSITION TIME  SKY/WX   TEMP    WIND        PRES    VSBY
                                AIR SEA DIR/SP/G
                 (UTC)          (F)     (DEG/KT/KT) (MB)    (MI)
150E HAT   41001 NOT AVBL
W BERMUDA  41048 0050            64 68   80/ 10/ 14 1027.9
WVE H/P(F/S)=  4/ 8 SWL H/P/D(F/S/D)=  3/ 90/ 8

ATLANTIC S 41049 0050            69 72   80/ 21/ 25 1023.3
WVE H/P(F/S)= 10/ 9 SWL H/P/D(F/S/D)=  5/340/11

E BAHAMAS  41046 NOT AVBL
NE BAHAMAS 41047 0120            71 72   80/ 17/ 23 1021.5
120E CANVRL41010 NOT AVBL

END



USA.gov is the U.S. government's official web portal to all federal, state and local government web resources and services.